Flag for India Weather past 2 weeks in Ganganagar, Rajasthan, India

Now
79 °F

Thunderstorms. Broken clouds.


Feels Like: 82 °F
Forecast: 80 / 89 °F
Wind: 9 mph from Northeast

Location: Lahore Airport

Current Time: Sep 1, 2014 at 1:37:30 PM

Latest Report: Sep 1, 2014 at 12:59 PM


Visibility: 2 mi

Pressure: 29.68 "Hg

Humidity: 89%

Dew point: 75 °F

Location of GanganagarLocation

Historic Weather in Ganganagar — Graph

°F

Ganganagar temperature yesterday

Maximum temperature yesterday: 97 °F (at 12:25 PM)
Minimum temperature yesterday: 81 °F (at 6:30 AM)
Average temperature yesterday: 87 °F

Past Weeks' High & Low Weather Summary

 TemperatureHumidityPressure
High104 °F (Aug 22, 3:25 PM)94% (Sep 1, 10:29 AM)29.80 "Hg (Sep 1, 10:29 AM)
Low77 °F (Sep 1, 10:29 AM)19% (Aug 30, 10:25 PM)29.53 "Hg (Aug 27, 4:55 PM)
Average90 °F57%29.66 "Hg
* Reported Aug 17 11:55 AM — Sep 1 12:29 PM, Ganganagar, Weather by CustomWeather, © 2014

Note: Actual official high and low records may vary slightly from our data, if they occured in-between our weather recording intervals... More about our weather records

Advertising

Ganganagar weather history for previous 24 hours

 ConditionsComfort  
Time TempWeatherWind HumidityBarometerVisibility
12:29 PM
Sep 1
77 °FThunderstorms. Broken clouds.9 mph94%29.68 "Hg2 mi
11:59 AM77 °FThunderstorms. Scattered clouds.12 mph94%29.71 "Hg2 mi
11:29 AM77 °FThunderstorms. Broken clouds.18 mph94%29.71 "Hg2 mi
10:59 AM77 °FThunderstorms. Broken clouds.21 mph94%29.71 "Hg2 mi
10:29 AM77 °FThunderstorms. Broken clouds.23 mph94%29.68 "Hg2 mi
9:59 AM79 °FThunderstorms. Broken clouds.21 mph89%29.68 "Hg2 mi
9:25 AM81 °FThunderstorms. Broken clouds.6 mph84%29.68 "Hg2 mi
8:55 AM82 °FBroken clouds.3 mph79%29.65 "Hg2 mi
8:25 AM81 °FScattered clouds.5 mph84%29.65 "Hg3 mi
8:00 AM81 °FScattered clouds.5 mph84%29.65 "Hg3 mi
7:30 AM81 °FScattered clouds.5 mph84%29.65 "Hg3 mi
7:00 AM79 °FScattered clouds.3 mph84%29.65 "Hg3 mi
6:25 AM79 °FScattered clouds.N/A84%29.65 "Hg3 mi
5:25 AM81 °FPassing clouds.5 mph79%29.62 "Hg2 mi
4:55 AM81 °FPassing clouds.5 mph79%29.62 "Hg2 mi
4:25 AM81 °FPassing clouds.5 mph79%29.62 "Hg2 mi
3:55 AM81 °FPassing clouds.6 mph79%29.62 "Hg2 mi
3:25 AM81 °FPassing clouds.3 mph79%29.62 "Hg2 mi
2:55 AM82 °FPassing clouds.5 mph74%29.62 "Hg2 mi
2:25 AM82 °FPassing clouds.5 mph74%29.62 "Hg2 mi
1:55 AM82 °FPassing clouds.3 mph74%29.62 "Hg2 mi
1:25 AM82 °FPassing clouds.No wind74%29.62 "Hg2 mi
12:55 AM84 °FPassing clouds.5 mph70%29.62 "Hg2 mi
12:25 AM84 °FPassing clouds.6 mph74%29.62 "Hg2 mi
11:55 PM
Aug 31
84 °FPassing clouds.5 mph70%29.59 "Hg2 mi
11:25 PM84 °FPassing clouds.5 mph70%29.59 "Hg2 mi
10:55 PM84 °FPassing clouds.6 mph70%29.59 "Hg2 mi
10:25 PM86 °FPassing clouds.7 mph70%29.59 "Hg2 mi
9:55 PM86 °FPassing clouds.7 mph70%29.59 "Hg2 mi
9:25 PM86 °FPassing clouds.6 mph70%29.59 "Hg2 mi
8:55 PM88 °FPassing clouds.No wind70%29.56 "Hg2 mi
8:25 PM88 °FPassing clouds.3 mph70%29.56 "Hg2 mi
7:55 PM88 °FPassing clouds.5 mph70%29.53 "Hg2 mi
7:25 PM88 °FPassing clouds.No wind70%29.53 "Hg2 mi
6:55 PM88 °FScattered clouds.3 mph70%29.53 "Hg2 mi
6:25 PM88 °FScattered clouds.3 mph70%29.53 "Hg2 mi
5:55 PM90 °FScattered clouds.5 mph67%29.53 "Hg2 mi
5:25 PM90 °FScattered clouds.5 mph67%29.53 "Hg2 mi
4:55 PM90 °FBroken clouds.3 mph67%29.53 "Hg2 mi
4:25 PM86 °FThunderstorms. Broken clouds.No wind79%29.56 "Hg2 mi
3:55 PM86 °FThunderstorms. Broken clouds.5 mph79%29.56 "Hg2 mi
3:25 PM86 °FThunderstorms. Broken clouds.9 mph84%29.56 "Hg2 mi
2:55 PM88 °FThunderstorms. Broken clouds.5 mph75%29.56 "Hg2 mi
2:25 PM90 °FBroken clouds.9 mph67%29.59 "Hg2 mi
1:55 PM90 °FThunderstorms. Broken clouds.9 mph71%29.59 "Hg2 mi
1:25 PM91 °FThunderstorms. Broken clouds.7 mph63%29.59 "Hg2 mi
Weather by CustomWeather, © 2014

See weather overviewHow to use our weather pages